Regional Weather Roundup
Issued by NWS Grand Forks, ND

Home | Current Version | Previous Version | Text Only | Print | Product List | Glossary On
Versions: 1 2 3 4 5 6 7 8 9 10 11 12 13 14 15 16 17 18 19 20 21 22 23 24 25 26 27 28 29 30 31 32 33 34 35 36 37 38 39 40 41 42 43 44 45 46 47 48 49 50
602
ASUS43 KFGF 150031
RWRFGF
PRAIRIE TO PINES  WEATHER ROUNDUP
NATIONAL WEATHER SERVICE EASTERN NORTH DAKOTA/GRAND FORKS ND
600 PM CST SUN FEB 14 2016

 **SATELLITE DATA USED TO AUGMENT SKY COVER AT AUTOMATED STATIONS**
 *****  WEATHER ACROSS EASTERN NORTH DAKOTA  *****

CITY           SKY/WX    TMP DP  RH WIND       PRES   REMARKS
GRAND FORKS    CLOUDY    21  16  81 S9        29.73F WCI  11
6HR MIN TEMP:  16; 6HR MAX TEMP:  21; 6HR PCP: TRACE;

GRAND FRKS AFB CLOUDY    23  19  83 SW2       29.72F
DEVILS LAKE    CLOUDY    26  24  92 NW10      29.70R WCI  16
6HR MIN TEMP:  20; 6HR MAX TEMP:  26;

FARGO          CLOUDY    20  15  81 S10       29.76F WCI   9
WAHPETON ARPT  CLOUDY    19  16  86 S12       29.80R WCI   7
$$

 ***** WEATHER ACROSS CENTRAL AND WESTERN NORTH DAKOTA  *****

CITY           SKY/WX    TMP DP  RH WIND       PRES   REMARKS
BISMARCK       PTCLDY    39  29  67 NW5       29.73R
6HR MIN TEMP:  39; 6HR MAX TEMP:  45;

MINOT          CLEAR     34  25  69 SW8       29.67F
6HR MIN TEMP:  33; 6HR MAX TEMP:  39;

JAMESTOWN      CLOUDY    28  24  85 CALM      29.71R
6HR MIN TEMP:  22; 6HR MAX TEMP:  29;

MINOT AFB      CLEAR     29  27  92 CALM      29.66F
GARRISON         N/A     33  28  81 NW6       29.70S
WILLISTON      PTCLDY    36  29  75 CALM      29.71R
6HR MIN TEMP:  30; 6HR MAX TEMP:  40;

DICKINSON      PTCLDY    35  30  82 W7        29.70S
6HR MIN TEMP:  35; 6HR MAX TEMP:  39;

HETTINGER      MOCLDY    36  31  82 W10       29.75R
6HR MIN TEMP:  36; 6HR MAX TEMP:  40;

$$

 *****  OTHER AIRPORT OBSERVATIONS IN OUR AREA  *****

CITY           SKY/WX    TMP DP  RH WIND       PRES   REMARKS
WALHALLA       FAIR      23  23 100 CALM      29.70S
GRAFTON AIRPOR CLOUDY    21  19  93 S5        29.74S WCI  15
VALLEY CITY AR CLOUDY    27  27 100 NW6       29.74R WCI  20
CANDO          CLOUDY    27  25  93 W8        29.71S WCI  18
CAVALIER APRT  CLOUDY    23  19  86 S6        29.71S FOG     WCI  16
GWINNER        CLOUDY    25  23  93 S12       29.75S WCI  14
SHEYENNE NWR     N/A     22  19  87 S5        29.95S WCI  16
ROLLA          FAIR      14  14 100 SW5       29.66F WCI   6
 ***** THE ABOVE OBSERVATIONS ARE NON NWS ARE NOT QUALITY
       CONTROLLED AND MAY MIS-REPORT RAIN FOR SNOW...
$$

  *****  WEATHER ACROSS NORTHERN MINNESOTA  *****

CITY           SKY/WX    TMP DP  RH WIND       PRES   REMARKS
FLAG ISLAND    LGT SNOW  12  10  92 S16       29.73F WCI  -4
WARROAD        FLURRIES  14  10  85 SE9       29.74F WCI   2
ROSEAU         LGT SNOW  18  12  79 S9        29.73S WCI   6
HALLOCK        CLOUDY    19  16  86 S10       29.72F WCI   8
THF RVR FALLS  CLOUDY    18  14  86 S12       29.74S WCI   5
6HR MIN TEMP:  14; 6HR MAX TEMP:  18;

BAUDETTE       LGT SNOW  14   9  80 S8        29.75F WCI   3
6HR MIN TEMP:  12; 6HR MAX TEMP:  14; 6HR PCP: TRACE;

WASKISH        LGT SNOW  14  12  92 SE5       29.77S VSB 1   WCI   6
CROOKSTON      PTCLDY    18  16  93 S14       29.76S WCI   4
STEPHEN NDAWN    N/A     18  16  93 S12         N/A  WCI   5
GREENBUSH NDAW   N/A     16  16 100 S12         N/A  WCI   3
$$
  *****  WEATHER ACROSS CENTRAL AND WEST MINNESOTA  *****

CITY           SKY/WX    TMP DP  RH WIND       PRES   REMARKS
FOSSTON        CLOUDY    14  12  92 S17       29.75S FOG     WCI  -3
BEMIDJI        FLURRIES  15  11  85 S10       29.75F WCI   2
PARK RAPIDS    CLOUDY    16  12  84 S13       29.77S WCI   2
6HR MIN TEMP:  13; 6HR MAX TEMP:  16; 6HR PCP:  0.01;

ELBOW LAKE     CLOUDY    18  15  88 S15       29.81S FOG     WCI   3
6HR MIN TEMP:  15; 6HR MAX TEMP:  17;

WADENA         MIX PCPN  16  12  86 S10       29.79S WCI   3
DETROIT LAKES  CLOUDY    18  18 100 S10       29.77S FOG     WCI   6
MOORHEAD       CLOUDY    18  16  93 S15       29.78S WCI   3
FERGUS FALLS   CLOUDY    18  14  86 S15       29.83S FOG     WCI   3
MORRIS MN      CLOUDY    19  16  86 S13       29.81F WCI   7
STAPLES        FLURRIES  16  12  86 S9        29.81S WCI   4
$$
  *****  WEATHER ELSEWHERE ACROSS MINNESOTA  *****

CITY           SKY/WX    TMP DP  RH WIND       PRES   REMARKS
DULUTH         LGT SNOW  14   9  80 S8        29.87S WCI   3
6HR MIN TEMP:  10; 6HR MAX TEMP:  14; 6HR PCP:  0.04;

INTRNTL FALLS  LGT SNOW  13   9  84 SE8       29.80F FOG     WCI   2
6HR MIN TEMP:  11; 6HR MAX TEMP:  13; 6HR PCP:  0.10;

ELY            LGT SNOW  12   9  85 S5        29.85S WCI   4
CLOQUET        LGT SNOW  14  10  85 SE3       29.88S
WHEATON        CLOUDY    21  18  86 S12       29.82F WCI   9
BRAINERD       LGT SNOW  16  12  84 S13G21    29.83F FOG     WCI   2
6HR MIN TEMP:  12; 6HR MAX TEMP:  17; 6HR PCP: TRACE;

HIBBING        LGT SNOW  11   8  88 SE7       29.84F FOG     WCI   0
6HR MIN TEMP:   9; 6HR MAX TEMP:  12; 6HR PCP: TRACE;

ALEXANDRIA     CLOUDY    17  13  84 S14       29.81R WCI   3
6HR MIN TEMP:  15; 6HR MAX TEMP:  17; 6HR PCP: TRACE;

SAINT CLOUD    CLOUDY    18  13  80 S13       29.88S WCI   5
6HR MIN TEMP:  16; 6HR MAX TEMP:  19; 6HR PCP:  0.02;

MINNEAPOLIS    LGT SNOW  17  13  84 SE10      29.94S FOG     WCI   5
6HR MIN TEMP:  18; 6HR MAX TEMP:  19; 6HR PCP:  0.01;

$$

  *****  WEATHER ACROSS SOUTH DAKOTA  *****

CITY           SKY/WX    TMP DP  RH WIND       PRES   REMARKS
SIOUX FALLS    CLOUDY    22  17  81 S7        29.83R WCI  13
6HR MIN TEMP:  18; 6HR MAX TEMP:  22; 6HR PCP: TRACE;

BROOKINGS      FLURRIES  22  18  85 S6        29.79S WCI  14
WATERTOWN      CLOUDY    22  19  89 S7        29.77R FOG     WCI  13
6HR MIN TEMP:  16; 6HR MAX TEMP:  22;

HURON          CLOUDY    28  23  81 S6        29.79R WCI  22
6HR MIN TEMP:  22; 6HR MAX TEMP:  29;

SISSETON         N/A     21  18  88 S8        29.77F WCI  11
ABERDEEN       CLOUDY    27  22  81 S7        29.77R WCI  19
6HR MIN TEMP:  20; 6HR MAX TEMP:  27;

MITCHELL       CLOUDY    29  25  85 SE7       29.81S WCI  22
PIERRE         MOCLDY    37  33  85 W13       29.77R
6HR MIN TEMP:  37; 6HR MAX TEMP:  40;

MOBRIDGE       CLOUDY    37  30  75 NW3       29.71S
RAPID CITY     MOCLDY    39  31  72 NW9       29.79R
6HR MIN TEMP:  38; 6HR MAX TEMP:  44; 6HR PCP: TRACE;

$$

  *****  SOME WEATHER IN NEARBY STATES *****

CITY           SKY/WX    TMP DP  RH WIND       PRES   REMARKS
GLASGOW MT     CLEAR     42  30  62 NW10      29.75R
6HR MIN TEMP:  36; 6HR MAX TEMP:  46;

GREAT FALLS MT MOCLDY    46  16  30 W14       29.87S
6HR MIN TEMP:  46; 6HR MAX TEMP:  51;

CHEYENNE WY    CLOUDY    40  23  50 W24G36    29.86R
6HR MIN TEMP:  40; 6HR MAX TEMP:  46;

SCOTTSBLUFF NE CLOUDY    42  28  57 NE7       29.82S
6HR MIN TEMP:  40; 6HR MAX TEMP:  54; 6HR PCP:  0.04;

OMAHA NE       MOCLDY    35  29  78 NW7       29.87R
6HR MIN TEMP:  32; 6HR MAX TEMP:  37;

DES MOINES IA  CLOUDY    24  17  74 E5        29.89S WCI  18
6HR MIN TEMP:  22; 6HR MAX TEMP:  25;

DAVENPORT IA   CLOUDY    19  15  84 SE14      29.98S WCI   6
6HR MIN TEMP:  18; 6HR MAX TEMP:  20; 6HR PCP: TRACE;

CHICAGO IL     LGT SNOW  17  13  84 SE14      30.07S FOG     WCI   3
6HR MIN TEMP:  15; 6HR MAX TEMP:  18; 6HR PCP:  0.08;

EAU CLAIRE WI  LGT SNOW  17   9  70 SE12      29.98R WCI   4
6HR MIN TEMP:  13; 6HR MAX TEMP:  17; 6HR PCP: TRACE;

LA CROSSE WI   CLOUDY    18  10  71 SE10      30.01R WCI   6
6HR MIN TEMP:  15; 6HR MAX TEMP:  20; 6HR PCP: TRACE;

$$

  *****  SOME NATIONAL WEATHER *****

CITY           SKY/WX    TMP DP  RH WIND       PRES   REMARKS
LA GUARDIA NY  PTCLDY    16 -12  28 W8        30.54R WCI   5
6HR MIN TEMP:  11; 6HR MAX TEMP:  17;

RALEIGH NC     CLOUDY    29  -1  27 SE6       30.45S WCI  23
6HR MIN TEMP:  28; 6HR MAX TEMP:  32;

ATLANTA GA     CLOUDY    44  19  36 SE10      30.22S
6HR MIN TEMP:  42; 6HR MAX TEMP:  48;

NEW ORLEANS LA PTCLDY    66  52  60 SE12      30.06F
6HR MIN TEMP:  66; 6HR MAX TEMP:  71;

OKLAHOMA CITY  PTCLDY    53  36  52 N6        29.89R
6HR MIN TEMP:  50; 6HR MAX TEMP:  56;

ALBUQUERQUE NM MOCLDY    60   8  12 N20       30.00R
6HR MIN TEMP:  55; 6HR MAX TEMP:  64;

SALT LAKE CITY CLOUDY    42  36  79 S7        30.25S HAZE
6HR MIN TEMP:  32; 6HR MAX TEMP:  43; 6HR PCP:  0.01;

LOS ANGELES CA PTSUNNY   64  51  62 W9        29.96F
6HR MIN TEMP:  57; 6HR MC1F1C2F2C3F3C4F4C5F5C6F6C7F7C8F8C9F9CaFaCbFbCcFcCd!



USA.gov is the U.S. government's official web portal to all federal, state and local government web resources and services.